N755HF PAPG-PAYA

Flight info

Callsign N755HF
Flight time N/A
Altitude 24000
Route CIMUF
Aircraft PC12/L-SDFGRWY/S

Departure

Time 2026-05-04 22:34
Airport Petersburg James A Johnson Airport (PAPG)

Arrival

Time N/A
Airport Yakutat Airport (PAYA)
Time Latitude Longitude Altitude Speed Heading
2026-05-04 22:21 56.80621 -132.93153 117 ft 0 kts 249°
2026-05-04 22:30 56.80616 -132.93174 118 ft 8 kts 244°
2026-05-04 22:30 56.80589 -132.93275 117 ft 18 kts 244°
2026-05-04 22:30 56.80500 -132.93413 118 ft 19 kts 155°
2026-05-04 22:31 56.80372 -132.93478 116 ft 27 kts 242°
2026-05-04 22:31 56.80302 -132.93838 114 ft 33 kts 249°
2026-05-04 22:31 56.80217 -132.94261 118 ft 38 kts 250°
2026-05-04 22:31 56.80128 -132.94735 116 ft 41 kts 252°
2026-05-04 22:32 56.80031 -132.95242 120 ft 43 kts 250°
2026-05-04 22:32 56.79933 -132.95749 120 ft 42 kts 250°
2026-05-04 22:32 56.79863 -132.96060 117 ft 14 kts 217°
2026-05-04 22:32 56.79869 -132.96073 116 ft 3 kts 68°
2026-05-04 22:33 56.79904 -132.95907 119 ft 34 kts 68°
2026-05-04 22:33 56.80036 -132.95220 129 ft 75 kts 66°
2026-05-04 22:33 56.80225 -132.94251 268 ft 85 kts 66°
2026-05-04 22:33 56.80452 -132.93230 528 ft 89 kts 59°
2026-05-04 22:34 56.80980 -132.92574 739 ft 106 kts
2026-05-04 22:34 56.81790 -132.92580 1026 ft 119 kts 356°
2026-05-04 22:34 56.82617 -132.92590 1427 ft 120 kts 359°
2026-05-04 22:34 56.83471 -132.92549 1811 ft 124 kts
2026-05-04 22:35 56.84323 -132.92642 2258 ft 122 kts 349°
2026-05-04 22:35 56.85135 -132.93081 2695 ft 122 kts 336°
2026-05-04 22:35 56.85841 -132.93959 3118 ft 124 kts 319°
2026-05-04 22:35 56.86277 -132.95314 3518 ft 127 kts 294°
2026-05-04 22:36 56.86597 -132.96803 3915 ft 128 kts 288°
2026-05-04 22:36 56.86818 -132.98380 4465 ft 129 kts 287°
2026-05-04 22:36 56.87037 -132.99968 4940 ft 128 kts 287°
2026-05-04 22:36 56.87257 -133.01541 5424 ft 128 kts 288°
2026-05-04 22:37 56.87477 -133.03121 5923 ft 128 kts 288°
2026-05-04 22:37 56.87695 -133.04691 6453 ft 127 kts 288°
2026-05-04 22:37 56.87911 -133.06256 6970 ft 127 kts 287°
2026-05-04 22:37 56.88129 -133.07816 7470 ft 127 kts 287°
2026-05-04 22:38 56.88351 -133.09378 8013 ft 127 kts 288°
2026-05-04 22:38 56.88571 -133.10934 8495 ft 126 kts 288°
2026-05-04 22:38 56.88790 -133.12490 8964 ft 126 kts 288°
2026-05-04 22:38 56.89006 -133.14046 9469 ft 126 kts 287°
2026-05-04 22:39 56.89224 -133.15597 10089 ft 126 kts 288°
2026-05-04 22:39 56.89445 -133.17150 10606 ft 126 kts 287°
2026-05-04 22:39 56.89826 -133.18536 11123 ft 126 kts 327°
2026-05-04 22:39 56.90675 -133.19092 11556 ft 132 kts 332°
2026-05-04 22:40 56.91454 -133.19925 12054 ft 128 kts 313°
2026-05-04 22:40 56.92066 -133.21103 12574 ft 128 kts 308°
2026-05-04 22:40 56.92651 -133.22332 13095 ft 128 kts 307°
2026-05-04 22:40 56.93225 -133.23582 13625 ft 129 kts 306°
2026-05-04 22:41 56.93799 -133.24849 14117 ft 129 kts 305°
2026-05-04 22:41 56.94364 -133.26102 14578 ft 130 kts 305°
2026-05-04 22:41 56.94940 -133.27384 15049 ft 131 kts 304°
2026-05-04 22:41 56.95519 -133.28675 15513 ft 132 kts 304°
2026-05-04 22:42 56.96102 -133.29974 15969 ft 132 kts 304°
2026-05-04 22:42 56.96689 -133.31285 16420 ft 133 kts 304°
2026-05-04 22:42 56.97280 -133.32604 16889 ft 134 kts 304°
2026-05-04 22:42 56.97872 -133.33926 17370 ft 135 kts 303°
2026-05-04 22:43 56.98470 -133.35264 17843 ft 136 kts 303°
2026-05-04 22:43 56.99072 -133.36611 18328 ft 137 kts 303°
2026-05-04 22:43 56.99679 -133.37967 18767 ft 138 kts 303°
2026-05-04 22:43 57.00287 -133.39329 19204 ft 138 kts 303°
2026-05-04 22:44 57.00896 -133.40694 19627 ft 139 kts 303°
2026-05-04 22:44 57.01510 -133.42070 20039 ft 140 kts 303°
2026-05-04 22:44 57.02126 -133.43453 20465 ft 140 kts 302°
2026-05-04 22:44 57.02745 -133.44842 20884 ft 141 kts 302°
2026-05-04 22:45 57.03367 -133.46238 21306 ft 141 kts 302°
2026-05-04 22:45 57.04620 -133.49054 22153 ft 143 kts 302°
2026-05-04 22:45 57.05250 -133.50473 22573 ft 144 kts 302°
2026-05-04 22:46 57.05885 -133.51901 22992 ft 145 kts 302°
2026-05-04 22:46 57.06523 -133.53338 23417 ft 146 kts 302°
2026-05-04 22:46 57.07165 -133.54785 23817 ft 146 kts 302°
2026-05-04 22:46 57.07803 -133.56225 24115 ft 151 kts 302°
2026-05-04 22:47 57.08509 -133.57831 24132 ft 171 kts 303°
2026-05-04 22:47 57.09299 -133.59610 24142 ft 188 kts 303°
2026-05-04 22:47 57.10159 -133.61542 24138 ft 202 kts 303°
2026-05-04 22:47 57.11069 -133.63594 24141 ft 212 kts 304°
2026-05-04 22:48 57.12020 -133.65746 24138 ft 221 kts 304°
2026-05-04 22:48 57.13005 -133.67977 24141 ft 227 kts 304°
2026-05-04 22:48 57.14011 -133.70258 24141 ft 232 kts 304°
2026-05-04 22:48 57.15034 -133.72579 24141 ft 235 kts 304°
2026-05-04 22:49 57.16069 -133.74931 24144 ft 237 kts 304°
2026-05-04 22:49 57.17111 -133.77302 24143 ft 239 kts 304°
2026-05-04 22:49 57.18161 -133.79693 24142 ft 241 kts 304°
2026-05-04 22:49 57.19215 -133.82094 24144 ft 241 kts 304°
2026-05-04 22:50 57.20273 -133.84508 24143 ft 242 kts 304°
2026-05-04 22:50 57.21332 -133.86928 24142 ft 243 kts 304°
2026-05-04 22:50 57.22394 -133.89357 24142 ft 243 kts 304°
2026-05-04 22:50 57.23454 -133.91783 24142 ft 243 kts 303°
2026-05-04 22:51 57.24513 -133.94210 24139 ft 243 kts 304°
2026-05-04 22:51 57.25576 -133.96648 24144 ft 243 kts 303°
2026-05-04 22:51 57.26638 -133.99085 24140 ft 243 kts 303°
2026-05-04 22:51 57.27683 -134.01488 24140 ft 243 kts 303°
2026-05-04 22:52 57.28743 -134.03925 24139 ft 243 kts 303°
2026-05-04 22:52 57.29801 -134.06362 24139 ft 243 kts 303°
2026-05-04 22:52 57.30858 -134.08800 24138 ft 243 kts 303°
2026-05-04 22:52 57.31917 -134.11244 24134 ft 243 kts 303°
2026-05-04 22:53 57.32973 -134.13682 24136 ft 243 kts 303°
2026-05-04 22:53 57.34029 -134.16124 24131 ft 243 kts 303°
2026-05-04 22:53 57.35083 -134.18566 24129 ft 242 kts 303°
2026-05-04 22:53 57.36136 -134.21006 24128 ft 242 kts 303°
2026-05-04 22:54 57.37187 -134.23445 24128 ft 242 kts 303°
2026-05-04 22:54 57.38237 -134.25885 24124 ft 243 kts 303°
2026-05-04 22:54 57.39290 -134.28334 24124 ft 244 kts 303°
2026-05-04 22:54 57.40347 -134.30792 24125 ft 244 kts 303°
2026-05-04 22:55 57.41402 -134.33248 24121 ft 243 kts 303°
2026-05-04 22:55 57.42455 -134.35702 24120 ft 243 kts 303°
2026-05-04 22:55 57.43504 -134.38154 24116 ft 243 kts 303°
2026-05-04 22:55 57.44557 -134.40614 24112 ft 244 kts 303°
2026-05-04 22:56 57.45612 -134.43080 24113 ft 243 kts 303°
2026-05-04 22:56 57.46664 -134.45543 24112 ft 243 kts 303°
2026-05-04 22:56 57.47714 -134.48005 24116 ft 243 kts 303°
2026-05-04 22:56 57.48761 -134.50461 24109 ft 242 kts 303°
2026-05-04 22:57 57.49807 -134.52917 24111 ft 242 kts 303°
2026-05-04 22:57 57.50852 -134.55374 24111 ft 242 kts 303°
2026-05-04 22:57 57.51897 -134.57833 24108 ft 242 kts 303°
2026-05-04 22:57 57.52939 -134.60286 24109 ft 242 kts 303°
2026-05-04 22:58 57.53982 -134.62746 24106 ft 242 kts 303°
2026-05-04 22:58 57.55024 -134.65205 24108 ft 241 kts 303°
2026-05-04 22:58 57.56050 -134.67629 24105 ft 241 kts 303°
2026-05-04 22:58 57.57087 -134.70082 24109 ft 241 kts 303°
2026-05-04 22:59 57.58122 -134.72533 24114 ft 240 kts 303°
2026-05-04 22:59 57.59156 -134.74983 24108 ft 240 kts 302°
2026-05-04 22:59 57.60188 -134.77432 24110 ft 240 kts 303°
2026-05-04 22:59 57.61219 -134.79881 24113 ft 240 kts 302°
2026-05-04 23:00 57.62250 -134.82331 24108 ft 240 kts 302°
2026-05-04 23:00 57.63279 -134.84781 24114 ft 240 kts 302°
2026-05-04 23:00 57.64308 -134.87233 24113 ft 240 kts 302°
2026-05-04 23:00 57.65333 -134.89678 24110 ft 239 kts 302°
2026-05-04 23:01 57.66327 -134.92049 24113 ft 239 kts 302°
2026-05-04 23:01 57.67351 -134.94496 24114 ft 239 kts 302°
2026-05-04 23:01 57.68374 -134.96943 24112 ft 238 kts 302°
2026-05-04 23:01 57.69395 -134.99389 24114 ft 239 kts 302°
2026-05-04 23:02 57.70416 -135.01837 24111 ft 238 kts 302°
2026-05-04 23:02 57.71422 -135.04250 24117 ft 238 kts 302°
2026-05-04 23:02 57.72442 -135.06702 24118 ft 239 kts 302°
2026-05-04 23:02 57.73465 -135.09159 24119 ft 239 kts 302°
2026-05-04 23:03 57.74486 -135.11617 24124 ft 240 kts 302°
2026-05-04 23:03 57.75510 -135.14084 24117 ft 240 kts 302°
2026-05-04 23:03 57.76532 -135.16548 24120 ft 239 kts 302°
2026-05-04 23:03 57.77532 -135.18963 24118 ft 238 kts 302°
2026-05-04 23:04 57.78546 -135.21414 24124 ft 238 kts 302°
2026-05-04 23:04 57.79557 -135.23861 24121 ft 238 kts 302°
2026-05-04 23:04 57.80568 -135.26309 24124 ft 237 kts 302°
2026-05-04 23:04 57.81575 -135.28753 24122 ft 236 kts 302°
2026-05-04 23:05 57.82580 -135.31191 24123 ft 236 kts 302°
2026-05-04 23:05 57.83580 -135.33618 24115 ft 234 kts 302°
2026-05-04 23:05 57.84568 -135.36022 24129 ft 234 kts 302°
2026-05-04 23:05 57.85567 -135.38457 24129 ft 236 kts 302°
2026-05-04 23:06 57.86573 -135.40909 24128 ft 238 kts 302°
2026-05-04 23:06 57.87583 -135.43370 24125 ft 238 kts 302°
2026-05-04 23:06 57.88596 -135.45841 24129 ft 239 kts 301°
2026-05-04 23:06 57.89610 -135.48320 24127 ft 239 kts 301°
2026-05-04 23:07 57.90622 -135.50796 24127 ft 239 kts 301°
2026-05-04 23:07 57.91619 -135.53239 24128 ft 239 kts 302°
2026-05-04 23:07 57.92632 -135.55721 24126 ft 239 kts 301°
2026-05-04 23:07 57.93644 -135.58207 24128 ft 239 kts 301°